Observations for Trim Patrick St
| Time | AQI | Temp °C | Hum % | Pres Pa | CO μg/m³ | H₂S μg/m³ | NO μg/m³ | NO₂ μg/m³ | O₃ μg/m³ | SO₂ μg/m³ | PM1 μg/m³ | PM2.5 μg/m³ | PM10 μg/m³ |
|---|---|---|---|---|---|---|---|---|---|---|---|---|---|
| Saturday 8 August 2026 | |||||||||||||
| 14:44 | 2 | 30.6 | 35 | 69,254 | 0 | 0 | 0.86 | 10.55 | 67.87 | 14.48 | 2 | 7.37 | 8.1 |
| 14:43 | 2 | 30.6 | 35 | 69,248 | 0 | 0.94 | 0.83 | 18.03 | 81.07 | 13.36 | 2.86 | 8.14 | 8.96 |
| 14:42 | 2 | 30.5 | 36 | 69,232 | 0 | 0 | 0.86 | 13.61 | 78.39 | 13.5 | 2.86 | 8.11 | 8.92 |
| 14:41 | 2 | 30.4 | 36 | 69,250 | 0 | 0 | 0.87 | 13.64 | 89.68 | 13.93 | 2 | 7.32 | 8.05 |
| 14:40 | 2 | 30.3 | 36 | 69,271 | 0 | 0 | 0.9 | 11.15 | 65.9 | 12.81 | 2 | 8.12 | 8.93 |
| 14:39 | 2 | 30.2 | 36 | 69,278 | 0 | 2.78 | 0.93 | 13.91 | 96.24 | 13.84 | 2.86 | 8.12 | 8.93 |
| 14:38 | 2 | 30.2 | 36 | 69,246 | 0 | 3.02 | 0.91 | 14.08 | 105.08 | 13.84 | 2 | 8.12 | 8.93 |
| 14:37 | 2 | 30.1 | 36 | 69,240 | 0 | 0 | 0.92 | 9.85 | 79.65 | 14.02 | 2 | 8.1 | 8.91 |
| 14:36 | 2 | 30.1 | 35 | 69,234 | 0 | 0 | 0.96 | 13.9 | 90.25 | 12.98 | 2.86 | 8.13 | 8.95 |
| 14:34 | 2 | 30 | 36 | 69,254 | 0 | 1.11 | 0.92 | 11.92 | 78.08 | 13.64 | 2 | 7.3 | 8.03 |
| 14:33 | 2 | 29.9 | 36 | 69,254 | 0 | 0 | 0.94 | 14.01 | 91.19 | 12.53 | 2 | 7.3 | 8.03 |
| 14:32 | 2 | 29.8 | 36 | 69,250 | 0 | 0 | 0.95 | 12.92 | 71.47 | 12.48 | 2 | 8.1 | 8.91 |
| 14:26 | 2 | 29.6 | 36 | 69,193 | 0 | 0 | 1.01 | 12.23 | 85.91 | 12.4 | 2.86 | 8.08 | 8.89 |
| 14:23 | 2 | 29.5 | 36 | 69,177 | 0 | 0.86 | 1.03 | 11.49 | 81.66 | 12.79 | 2 | 7.3 | 8.03 |
| 14:22 | 2 | 29.5 | 36 | 69,185 | 0 | 6.13 | 1.03 | 18.13 | 90.04 | 13.14 | 2 | 7.3 | 8.03 |
| 14:19 | 2 | 29.5 | 36 | 69,169 | 0 | 1.1 | 1.01 | 12.47 | 90.39 | 13.16 | 3.71 | 8.89 | 9.78 |
| 14:18 | 2 | 29.5 | 36 | 69,177 | 0 | 0 | 1.03 | 12.26 | 90.11 | 12.21 | 2.86 | 8.88 | 9.77 |
| 14:17 | 2 | 29.5 | 36 | 69,185 | 0 | 0 | 1.04 | 10.86 | 79.65 | 13.17 | 2.86 | 8.1 | 8.91 |
| 14:16 | 2 | 29.5 | 36 | 69,195 | 0 | 1.34 | 0.99 | 12.29 | 84.33 | 13.24 | 2 | 8.88 | 9.76 |
| 14:15 | 2 | 29.5 | 37 | 69,177 | 0 | 2.76 | 0.99 | 13.58 | 95.01 | 12.78 | 2 | 8.04 | 8.85 |